Theta_e
331 332 333 332 334 335 338 335 335 343 344 344 341 341 342 346 365 359 355 352 348 345 344 344 344 344 343 343 342 342 342 342 344 342 340 334 336 339 341 336 339 340 337 343
337 336 334 335 335 338 334 335 339 356 356 343 339 335 337 345 360 355 351 349 346 345 344 343 344 344 344 344 345 345 343 341 337 333 334 338 338 336 336 340 336 333 341 339
339 336 336 338 338 340 341 340 340 355 354 346 341 338 345 359 356 351 347 345 344 342 342 342 341 339 339 332 333 333 331 332 335 337 339 341 338 337 338 337 341 340 339 341
346 341 345 340 339 341 342 341 339 353 350 343 342 349 357 352 351 349 346 344 341 340 341 340 338 337 336 336 337 341 338 337 336 335 335 335 333 330 329 330 326 320 320 324
352 349 341 340 341 341 340 339 342 345 350 353 351 354 356 350 348 345 342 340 340 339 338 336 337 336 334 333 331 331 334 330 329 329 327 326 324 327 325 325 327 329 334 337
345 345 343 341 340 338 339 340 343 340 348 352 339 340 345 351 344 342 340 340 339 336 334 334 334 332 331 331 330 330 329 328 328 329 330 331 330 329 332 334 334 332 331 327
339 340 339 336 341 343 346 352 349 351 352 351 348 350 348 344 342 340 339 339 338 337 335 331 328 327 327 328 330 329 328 329 329 330 330 330 330 329 329 330 330 331 331 330
344 344 348 335 340 350 344 344 348 350 350 353 348 346 345 343 340 333 330 332 331 330 328 326 326 327 328 330 329 328 329 328 329 329 329 329 329 329 328 329 329 330 331 331
342 343 335 337 334 333 334 336 346 347 346 345 345 345 342 340 335 333 331 327 326 326 327 326 326 327 328 329 328 328 327 327 328 327 326 326 327 327 329 329 329 329 329 327
340 338 338 338 333 334 337 343 343 344 343 343 342 338 336 333 328 326 326 325 326 325 326 328 326 327 328 327 327 327 328 328 327 327 327 327 327 324 323 324 323 323 322 322
336 336 336 335 332 336 339 339 340 339 339 337 335 331 328 327 326 326 326 325 325 325 327 328 326 326 328 326 325 326 326 326 325 325 324 324 325 324 324 323 322 322 322 321
332 331 334 336 334 336 335 333 331 329 329 328 324 326 325 325 326 325 324 326 327 326 326 325 325 323 323 322 322 322 322 322 322 322 321 321 322 323 324 323 322 321 322 321
331 334 335 334 333 333 331 329 327 325 324 324 324 324 326 324 324 325 325 324 324 322 322 322 320 320 319 318 319 319 319 319 319 319 320 321 321 323 323 323 322 320 320 321
332 334 335 333 333 331 329 327 325 324 324 323 323 323 325 326 325 324 322 320 320 321 319 318 317 317 317 317 317 317 318 318 318 318 319 319 319 320 320 320 321 321 322 323
329 328 331 332 329 326 325 323 323 322 323 322 324 324 323 324 324 322 320 320 319 319 318 318 317 317 317 317 317 317 317 317 317 317 317 318 319 320 320 320 321 322 323 322
328 327 327 328 325 324 324 323 324 323 324 323 325 323 322 322 322 321 321 320 320 320 321 319 318 316 316 316 316 315 315 316 317 316 318 319 320 320 320 320 321 321 321 322
327 332 330 328 326 325 324 323 323 323 324 323 323 321 321 322 323 321 320 320 319 320 319 318 317 315 315 315 316 316 314 315 315 315 318 318 320 321 321 321 321 321 321 321
325 328 327 326 326 325 324 323 323 323 324 322 321 321 322 320 321 320 319 318 319 319 319 318 318 316 315 316 316 315 314 314 316 316 316 317 318 319 320 320 318 318 318 318
326 326 325 324 323 325 323 324 324 324 322 321 321 321 320 320 319 318 318 319 319 321 320 319 318 317 316 316 317 316 314 315 316 315 315 317 317 317 317 315 314 315 316 316
324 322 322 324 323 322 323 322 322 322 321 321 321 320 319 319 319 318 318 319 319 319 319 319 315 318 316 317 317 316 314 315 315 315 314 315 316 317 316 315 313 313 313 313
324 324 323 322 323 323 323 321 321 321 320 319 319 320 320 319 318 318 319 320 318 319 317 315 316 316 315 316 316 316 315 313 311 312 312 314 316 316 315 313 312 312 312 312
323 322 322 322 321 321 321 322 320 320 319 317 317 317 318 318 318 317 316 319 317 315 315 315 315 315 315 315 316 316 316 314 309 310 313 314 315 313 311 310 310 310 310 310
325 324 324 324 324 322 322 321 320 318 318 318 317 318 318 319 319 318 318 317 315 316 316 315 315 314 315 315 315 316 317 315 313 311 313 315 314 312 310 309 309 309 309 308
321 320 321 320 318 318 321 320 320 318 318 317 318 319 319 319 319 319 316 316 315 317 315 315 315 313 313 314 315 317 317 316 315 313 314 315 314 312 310 309 309 308 308 308
323 322 321 319 317 317 320 319 319 320 319 318 316 316 318 318 321 318 317 318 317 315 314 314 313 314 314 315 317 317 317 318 317 315 314 313 311 311 309 308 308 308 308 308
322 322 321 320 320 320 320 320 320 317 318 316 317 314 313 314 315 315 315 315 315 315 315 314 314 314 314 315 316 315 314 316 315 312 311 310 309 309 308 308 308 308 307 307
322 321 321 320 319 320 318 317 316 316 317 316 315 313 315 315 315 316 315 315 315 315 316 315 315 315 316 317 315 313 316 314 313 310 310 310 311 310 310 311 310 310 308 306
Wind_Speed
9 11 15 9 11 8 2 7 4 11 11 11 18 21 21 24 15 19 20 16 13 10 13 22 30 31 33 34 34 33 36 34 29 27 26 24 22 19 21 24 20 25 28 26
7 10 14 15 11 8 5 6 11 8 3 11 8 18 14 13 12 15 12 14 14 14 17 20 25 25 28 29 28 28 28 26 22 19 14 5 8 15 17 11 14 15 25 24
7 9 11 8 8 6 4 2 2 3 7 11 5 10 8 9 14 15 14 12 13 13 16 20 23 24 27 22 19 18 17 12 6 13 18 18 14 8 13 15 10 13 20 23
4 10 7 7 11 7 7 6 9 6 10 10 12 11 10 14 15 15 12 12 12 13 18 21 20 19 18 17 16 12 10 6 6 6 8 8 8 7 11 16 17 24 26 27
4 7 10 7 5 6 6 6 2 6 8 12 9 5 7 12 13 12 11 12 16 20 19 17 15 12 12 11 11 9 8 3 5 9 12 13 14 14 17 19 20 22 24 25
7 9 5 7 16 5 6 4 8 6 19 16 13 3 2 7 13 15 20 20 18 22 19 15 11 10 12 11 10 12 10 7 6 9 11 12 14 17 17 16 18 22 27 29
5 5 2 13 13 12 4 4 10 8 22 23 14 7 14 8 8 20 20 17 17 21 19 16 11 10 9 9 9 8 6 6 8 10 11 13 15 17 22 21 24 26 28 29
3 4 4 10 7 6 7 10 9 14 14 19 19 20 15 13 8 13 16 15 23 21 16 12 10 8 7 6 4 5 5 6 8 10 12 14 18 21 23 25 27 28 29 30
4 5 3 5 7 12 6 6 6 14 12 16 17 16 13 8 8 10 16 20 19 16 14 12 9 7 6 3 5 5 7 11 13 15 18 19 20 23 24 24 25 24 20 18
1 0 7 9 6 6 5 10 9 8 11 13 14 12 9 9 10 11 19 16 16 15 13 10 8 6 6 6 6 7 9 10 13 17 20 20 15 20 20 16 21 21 21 19
3 9 11 10 6 7 9 12 14 12 11 11 13 14 13 10 8 14 16 17 13 8 7 10 10 10 11 11 11 11 10 11 14 16 20 21 19 19 20 18 20 25 27 25
4 4 6 6 8 10 12 14 14 16 14 12 14 12 11 8 17 17 14 12 14 15 15 16 15 14 14 14 15 14 13 15 17 18 20 22 23 25 19 18 20 22 24 26
3 6 8 10 9 11 12 13 15 14 10 11 12 17 17 11 15 15 20 18 17 14 13 13 14 14 15 17 15 15 16 19 20 21 20 19 19 20 17 20 20 22 23 23
4 8 7 6 7 10 12 13 23 19 19 17 15 16 16 15 17 18 17 15 13 12 10 11 11 12 13 14 15 16 17 17 16 18 20 21 20 21 22 21 20 23 25 21
4 3 3 7 10 13 17 16 14 10 8 10 15 16 14 12 13 13 10 6 4 1 2 2 6 9 12 13 14 16 18 19 19 21 23 23 24 20 21 21 20 20 22 27
2 1 2 12 11 10 11 11 11 8 8 9 11 12 9 9 10 11 11 7 3 5 6 3 2 7 9 9 10 13 17 18 19 22 22 22 21 19 20 20 21 20 20 21
3 5 8 8 8 6 6 5 10 9 9 11 14 11 9 7 5 12 9 8 7 9 8 2 3 6 6 7 9 12 18 18 19 20 19 21 21 19 18 18 20 20 22 23
5 4 12 13 10 6 7 10 12 15 13 17 13 5 5 15 9 7 5 6 10 14 8 7 8 7 10 10 9 13 18 17 16 20 19 20 19 20 20 18 19 20 22 24
24 19 18 21 24 22 21 12 17 20 16 11 7 5 14 10 4 3 6 10 14 16 18 11 10 13 12 11 13 13 15 14 15 19 19 20 21 20 16 18 21 23 22 22
19 27 28 16 24 22 11 10 17 14 11 8 7 10 10 6 0 6 10 14 20 22 24 14 13 17 19 16 13 16 16 16 14 19 18 18 18 18 17 17 20 21 21 22
15 22 22 15 16 20 12 8 10 11 11 8 4 6 4 3 5 10 13 11 21 13 9 10 15 18 14 14 16 17 15 13 17 18 17 16 16 14 15 19 20 19 20 22
10 8 10 5 7 9 5 4 6 9 14 10 5 4 5 7 10 14 16 16 15 14 12 13 17 14 13 14 17 16 14 15 15 17 17 15 11 13 17 16 18 20 20 22
10 11 10 8 7 5 4 7 13 11 7 5 6 7 9 13 15 10 11 17 15 21 14 13 13 14 12 17 18 18 17 20 18 14 18 17 11 12 15 16 19 19 20 21
6 9 9 6 4 3 4 9 9 3 4 6 11 13 14 16 19 14 15 15 17 15 11 11 14 11 11 16 20 21 21 20 22 17 18 15 8 14 15 15 16 17 17 18
3 4 8 11 8 4 5 11 13 6 4 11 15 14 16 18 18 17 17 15 6 11 13 16 19 16 13 16 15 8 19 19 23 15 7 10 12 12 14 12 13 14 14 15
7 8 7 8 11 12 13 13 10 9 9 13 9 1 4 9 12 3 6 10 17 21 21 24 22 20 15 13 15 19 16 7 8 5 4 4 10 11 10 10 12 13 12 12
8 9 5 3 9 11 11 8 9 11 10 8 2 5 0 5 9 11 10 14 18 19 19 16 17 13 9 8 11 11 17 4 3 5 6 4 6 7 8 9 11 12 12 12
Wind_Direction
280 297 297 269 247 236 58 258 306 202 145 167 141 123 122 243 128 118 120 130 136 131 88 77 75 72 71 72 78 84 87 88 86 88 82 75 53 35 22 5 7 3 343 328
278 292 295 297 303 210 231 320 21 112 101 184 176 143 172 212 94 95 89 100 102 89 90 87 81 83 85 87 86 84 83 93 95 104 106 55 10 333 314 358 321 349 314 322
272 267 287 311 288 141 137 116 212 212 234 154 154 162 206 146 117 109 108 104 94 92 90 90 98 104 96 97 100 98 100 104 18 334 307 299 305 338 320 284 306 301 303 307
284 335 288 254 48 52 85 16 25 43 130 160 149 199 143 128 117 114 117 111 104 99 95 96 102 99 99 99 93 102 96 78 49 25 11 12 18 337 304 317 311 310 306 300
52 299 291 326 56 68 74 312 107 65 136 86 59 45 19 103 104 109 104 108 116 115 116 109 102 105 106 103 101 102 118 54 346 341 345 346 338 330 323 316 313 305 302 302
166 225 265 20 346 220 134 272 331 158 154 131 78 308 210 343 123 119 118 127 128 123 112 103 101 94 72 82 81 74 67 49 8 345 337 330 318 316 315 308 304 301 299 301
212 219 100 356 347 323 54 266 312 334 138 148 150 155 154 193 131 122 125 137 140 125 117 105 90 77 62 57 62 53 28 359 337 326 321 317 313 310 309 309 304 304 309 311
69 54 165 339 15 60 270 310 38 60 85 123 138 139 131 159 152 103 101 113 112 117 110 103 94 86 70 63 31 351 339 328 320 318 315 308 306 307 308 309 309 306 301 301
153 194 212 272 66 333 356 311 40 102 104 107 119 128 128 132 105 93 98 80 86 93 94 88 81 78 61 12 342 338 328 325 322 319 315 311 305 303 303 303 290 291 298 316
74 165 201 202 175 121 31 33 53 108 126 116 112 118 115 83 84 88 84 74 69 64 56 56 46 43 40 19 353 335 318 314 312 310 306 309 312 309 300 304 315 314 309 314
162 176 205 210 153 126 86 77 77 59 60 90 99 98 101 96 94 97 88 79 70 55 49 51 39 24 31 30 15 7 357 340 330 328 323 321 316 314 309 307 304 301 299 303
210 206 135 155 118 101 87 84 79 79 71 65 77 84 88 82 82 77 68 57 61 51 48 40 37 29 19 15 3 358 350 337 328 324 319 311 303 302 298 296 296 299 293 298
308 98 109 130 112 110 108 104 96 91 82 79 74 81 85 85 75 72 64 53 52 48 35 37 27 12 355 345 344 342 335 328 322 319 311 309 315 309 310 308 302 303 301 302
30 92 72 112 139 124 114 107 95 91 102 101 94 86 85 94 84 79 71 60 45 51 39 18 7 357 354 343 333 328 321 320 320 322 315 312 311 307 306 304 301 307 309 306
286 80 159 149 108 118 117 113 110 110 98 80 87 86 84 87 102 102 104 87 69 22 342 341 339 347 344 343 338 334 327 315 313 318 316 305 302 302 305 301 299 305 311 312
223 283 356 130 128 126 123 126 123 123 124 135 127 118 126 132 143 144 154 129 94 336 289 155 13 352 1 357 346 339 335 325 316 317 310 303 294 295 295 300 300 301 302 302
117 81 99 119 137 142 136 142 135 134 127 116 122 126 143 165 111 106 76 55 356 323 150 208 299 346 348 330 306 327 330 317 327 326 311 314 303 288 299 304 305 304 305 305
359 71 70 58 44 23 101 81 99 100 94 104 104 106 121 100 96 68 37 313 299 297 286 267 282 302 324 309 291 322 321 315 312 322 321 311 312 313 306 315 322 319 314 314
76 69 65 78 67 49 331 133 96 101 101 111 138 167 122 116 104 354 306 295 290 284 287 242 281 284 285 304 282 307 320 313 304 317 323 315 314 314 316 326 323 313 310 309
87 86 70 84 101 101 254 111 115 119 135 157 167 127 132 146 280 291 295 289 288 289 290 267 286 276 286 290 266 300 308 304 303 313 317 323 321 299 305 308 315 308 311 308
109 117 128 154 152 168 200 104 115 120 115 111 159 142 147 252 271 280 285 283 300 308 263 270 281 275 285 276 285 302 305 311 318 312 312 314 315 319 313 313 313 310 312 311
102 97 98 89 84 92 35 355 126 110 110 108 120 179 230 266 273 278 285 277 281 303 290 272 287 297 292 293 299 293 290 288 302 302 300 300 303 322 327 321 322 321 321 324
104 107 106 100 82 65 14 33 130 136 160 196 240 252 251 259 270 278 306 289 283 289 274 281 290 305 294 299 305 287 284 274 276 296 297 289 295 322 334 327 333 335 340 340
134 130 133 142 138 82 57 85 305 193 226 247 259 275 275 277 283 277 266 277 290 296 283 303 310 300 316 303 309 288 289 286 276 281 302 311 287 323 340 338 340 341 345 348
201 189 156 153 138 187 178 203 244 238 259 229 255 275 279 274 277 287 299 302 339 331 319 322 323 294 308 312 317 307 309 303 296 270 325 337 333 328 334 339 342 343 349 357
209 205 214 215 225 225 234 243 230 258 257 257 274 196 304 356 1 336 356 346 337 326 312 319 309 308 292 298 297 310 328 17 126 89 45 12 20 347 346 352 350 351 352 358
211 215 217 246 280 231 144 180 217 253 288 264 323 2 303 313 266 279 358 348 335 327 326 329 325 331 310 300 318 326 333 262 176 83 87 43 5 348 348 352 333 351 10 13